W4SKW Weather Reports


time (UTC)temp
C
wind
direction
speed
KPH
gust
KPH
rain 1hr
cm
rain 24hr
cm
rain mn
cm
humidity
%
barometer
mb
20260504081858 4 252 0.0 0.0 0.00 0.00 0.00 95 1018.8
20260504081354 4 252 0.0 0.0 0.00 0.00 0.00 95 1018.9
20260504080850 4 252 0.0 0.0 0.00 0.00 0.00 95 1018.6
20260504080348 4 252 0.0 0.0 0.00 0.00 0.00 95 1018.6
20260504050646 6 252 0.0 0.0 0.00 0.00 0.00 93 1019.6
20260504050143 6 252 0.0 0.0 0.00 0.00 0.00 93 1019.6
20260504045640 6 250 0.0 0.0 0.00 0.00 0.00 93 1019.6
20260504045140 6 251 0.0 0.0 0.00 0.00 0.00 93 1019.8
20260504044638 6 250 0.0 0.0 0.00 0.00 0.00 93 1019.8
20260504044135 6 252 0.0 0.0 0.00 0.00 0.00 93 1019.6
20260504043632 6 252 0.0 0.0 0.00 0.00 0.00 93 1019.6
20260504043129 6 251 0.0 0.0 0.00 0.00 0.00 92 1019.5
20260504042626 6 251 0.0 0.0 0.00 0.00 0.00 92 1019.5
20260504042123 6 252 0.0 0.0 0.00 0.00 0.00 92 1019.5
20260504041618 6 252 0.0 0.0 0.00 0.00 0.00 92 1019.3
20260504041115 7 252 0.0 0.0 0.00 0.00 0.00 92 1019.5
20260504040612 7 252 0.0 0.0 0.00 0.00 0.00 92 1019.5
20260504040109 7 252 0.0 0.0 0.00 0.00 0.00 91 1019.3
20260504035606 7 251 0.0 0.0 0.00 0.00 0.00 91 1019.5
20260504035102 7 251 0.0 0.0 0.00 0.00 0.00 91 1019.3
20260504034600 7 251 0.0 0.0 0.00 0.00 0.00 90 1019.4
20260504034056 7 253 0.0 0.0 0.00 0.00 0.00 90 1019.4
20260504033554 7 253 0.0 0.0 0.00 0.00 0.00 90 1019.4
20260504033052 7 253 0.0 0.0 0.00 0.00 0.00 89 1019.4
20260504032549 7 252 0.0 0.0 0.00 0.00 0.00 89 1019.3
20260504032045 7 252 0.0 0.0 0.00 0.00 0.00 89 1019.3
20260504031542 7 252 0.0 0.0 0.00 0.00 0.00 88 1019.3
20260504031038 7 252 0.0 0.0 0.00 0.00 0.00 88 1019.4
20260504030536 7 252 0.0 0.0 0.00 0.00 0.00 88 1019.2
20260504030032 7 252 0.0 0.0 0.00 0.00 0.00 87 1019.3
20260504025529 7 252 0.0 0.0 0.00 0.00 0.00 87 1019.3
20260504025026 7 253 0.0 0.0 0.00 0.00 0.00 87 1019.2
20260504024523 8 253 0.0 0.0 0.00 0.00 0.00 86 1019.1
20260504024020 8 252 0.0 0.0 0.00 0.00 0.00 86 1019.4
20260504023517 8 253 0.0 0.0 0.00 0.00 0.00 85 1019.4
20260504023012 8 253 0.0 0.0 0.00 0.00 0.00 86 1019.3
20260504022508 8 254 0.0 0.0 0.00 0.00 0.00 87 1019.3
20260504022005 8 252 0.0 0.0 0.00 0.00 0.00 86 1019.2
20260504021503 8 252 0.0 0.0 0.00 0.00 0.00 86 1019.2
20260504020959 8 253 0.0 0.0 0.00 0.00 0.00 85 1019.2
20260504020456 8 253 0.0 0.0 0.00 0.00 0.00 85 1019.2
20260504015953 8 253 0.0 0.0 0.00 0.00 0.00 86 1019.0
20260504015449 8 253 0.0 0.0 0.00 0.00 0.00 85 1019.0
20260504014945 9 253 0.0 0.0 0.00 0.00 0.00 85 1018.9
20260504014441 9 253 0.0 0.0 0.00 0.00 0.00 85 1018.9
20260504013553 10 253 0.0 0.0 0.00 0.00 0.00 84 1019.0
20260504013050 10 253 0.0 0.0 0.00 0.00 0.00 84 1019.0
20260504012547 10 253 0.0 0.0 0.00 0.00 0.00 84 1018.9
20260504012045 10 253 0.0 0.0 0.00 0.00 0.00 83 1018.9
20260504011542 10 253 0.0 0.0 0.00 0.00 0.00 83 1019.0
20260504011038 11 254 0.0 0.0 0.00 0.00 0.00 82 1018.8
20260504010534 11 251 0.0 0.0 0.00 0.00 0.00 82 1018.6
20260504010030 11 251 0.0 0.0 0.00 0.00 0.00 81 1018.7
20260504005526 11 247 0.0 0.0 0.00 0.00 0.00 81 1018.7
20260504005024 11 253 0.0 0.0 0.00 0.00 0.00 80 1018.6
20260504004521 12 253 0.0 0.0 0.00 0.00 0.00 79 1018.5
20260504004013 12 253 0.0 0.0 0.00 0.00 0.00 79 1018.5
20260504003509 12 251 0.0 0.0 0.00 0.00 0.00 79 1018.4
20260504003006 13 256 0.0 0.0 0.00 0.00 0.00 79 1018.2
20260504002503 13 254 0.0 0.0 0.00 0.00 0.00 77 1018.3
20260504002000 14 258 0.0 0.0 0.00 0.00 0.00 76 1018.3
20260504001458 15 253 0.0 0.0 0.00 0.00 0.00 74 1018.3
20260504000954 15 253 0.0 0.0 0.00 0.00 0.00 74 1018.4
20260504000451 15 254 0.0 0.0 0.00 0.00 0.00 72 1018.3
20260503235948 16 253 0.0 0.0 0.00 0.00 0.00 71 1018.2
20260503235446 16 247 0.0 0.0 0.00 0.00 0.00 64 1018.4
20260503234943 16 247 0.0 0.0 0.00 0.00 0.00 64 1018.4
20260503234441 16 260 0.0 0.0 0.00 0.00 0.00 68 1018.5
20260503233939 17 261 0.0 0.0 0.00 0.00 0.00 63 1018.4
20260503233435 17 251 0.0 0.0 0.00 0.00 0.00 61 1018.3
20260503232931 17 257 0.0 0.0 0.00 0.00 0.00 60 1018.4
20260503232428 18 253 0.0 0.0 0.00 0.00 0.00 56 1018.3
20260503231926 18 253 0.0 0.0 0.00 0.00 0.00 56 1018.3
20260503231424 18 261 0.0 0.0 0.00 0.00 0.00 51 1018.4
20260503230920 18 257 0.0 0.0 0.00 0.00 0.00 54 1018.1
20260503230416 19 239 0.0 0.0 0.00 0.00 0.00 53 1018.2
20260503225914 20 263 0.0 0.0 0.00 0.00 0.00 47 1018.1
20260503225410 21 258 0.0 0.0 0.00 0.00 0.00 39 1018.3
20260503224906 21 303 0.0 0.0 0.00 0.00 0.00 39 1018.3
20260503224403 21 243 0.0 0.0 0.00 0.00 0.00 38 1018.5
20260503223901 21 206 0.0 0.0 0.00 0.00 0.00 39 1018.3
20260503223359 22 237 0.0 0.0 0.00 0.00 0.00 38 1018.4
20260503222854 21 286 0.0 0.0 0.00 0.00 0.00 41 1018.4
20260503222353 21 236 0.0 0.0 0.00 0.00 0.00 38 1018.6
20260503221851 21 260 0.0 0.0 0.00 0.00 0.00 40 1018.6
20260503221349 22 262 0.0 0.0 0.00 0.00 0.00 40 1018.5
20260503220845 21 157 0.0 1.6 0.00 0.00 0.00 39 1018.6
20260503220342 21 157 0.0 1.6 0.00 0.00 0.00 39 1018.6
20260503215839 21 265 0.0 0.0 0.00 0.00 0.00 42 1018.7
20260503215336 21 251 0.0 0.0 0.00 0.00 0.00 39 1018.6
20260503214833 22 200 0.0 0.0 0.00 0.00 0.00 40 1018.7
20260503214331 21 254 0.0 0.0 0.00 0.00 0.00 40 1018.8
20260503213828 22 258 0.0 0.0 0.00 0.00 0.00 43 1018.8
20260503213325 21 246 0.0 0.0 0.00 0.00 0.00 39 1018.9
20260503212822 21 307 0.0 0.0 0.00 0.00 0.00 39 1018.9
20260503212320 22 220 4.8 6.4 0.00 0.00 0.00 39 1019.1
20260503211817 21 246 0.0 0.0 0.00 0.00 0.00 43 1019.1
20260503211314 21 247 0.0 0.0 0.00 0.00 0.00 44 1019.1
20260503210814 21 269 0.0 0.0 0.00 0.00 0.00 41 1019.1
20260503210311 21 219 3.2 4.8 0.00 0.00 0.00 44 1019.1
20260503205806 22 274 0.0 0.0 0.00 0.00 0.00 39 1019.3
20260503205304 21 224 0.0 0.0 0.00 0.00 0.00 38 1019.4
20260503204759 21 198 0.0 0.0 0.00 0.00 0.00 39 1019.5
20260503204252 21 198 0.0 0.0 0.00 0.00 0.00 39 1019.5
20260503203749 21 300 0.0 0.0 0.00 0.00 0.00 39 1019.3
20260503203246 21 121 0.0 1.6 0.00 0.00 0.00 39 1019.5
20260503202743 21 278 4.8 6.4 0.00 0.00 0.00 39 1019.4
20260503202241 21 325 0.0 0.0 0.00 0.00 0.00 39 1019.8
20260503201738 21 265 0.0 0.0 0.00 0.00 0.00 40 1019.9
20260503201236 21 164 0.0 0.0 0.00 0.00 0.00 43 1019.7
20260503200732 20 251 0.0 0.0 0.00 0.00 0.00 38 1019.9
20260503200228 20 323 0.0 0.0 0.00 0.00 0.00 48 1020.1
20260503195725 21 37 0.0 0.0 0.00 0.00 0.00 36 1020.3
20260503195222 20 250 0.0 0.0 0.00 0.00 0.00 42 1020.2
20260503194720 21 248 0.0 0.0 0.00 0.00 0.00 36 1020.4
20260503194215 21 98 0.0 0.0 0.00 0.00 0.00 41 1020.6
20260503193712 20 187 0.0 0.0 0.00 0.00 0.00 44 1020.7
20260503193208 20 258 0.0 0.0 0.00 0.00 0.00 45 1020.7
20260503192704 20 298 0.0 0.0 0.00 0.00 0.00 42 1020.8
20260503192159 20 261 0.0 0.0 0.00 0.00 0.00 44 1020.8
20260503191655 20 271 1.6 3.2 0.00 0.00 0.00 47 1020.9
20260503191153 20 258 0.0 1.6 0.00 0.00 0.00 44 1020.8
20260503190650 20 266 1.6 3.2 0.00 0.00 0.00 43 1021.0
20260503190146 20 240 0.0 0.0 0.00 0.00 0.00 43 1021.1
20260503185637 20 257 0.0 1.6 0.00 0.00 0.00 40 1021.2
20260503185133 19 229 0.0 0.0 0.00 0.00 0.00 44 1021.1
20260503184628 19 305 3.2 4.8 0.00 0.00 0.00 42 1021.2
20260503184125 19 280 0.0 0.0 0.00 0.00 0.00 46 1021.3
20260503183621 19 302 0.0 0.0 0.00 0.00 0.00 45 1021.4
20260503183119 19 283 4.8 6.4 0.00 0.00 0.00 41 1021.5
20260503182617 18 92 0.0 1.6 0.00 0.00 0.00 46 1021.5
20260503182114 20 236 0.0 0.0 0.00 0.00 0.00 45 1021.5
20260503181605 18 23 0.0 1.6 0.00 0.00 0.00 47 1021.5
20260503181102 19 328 3.2 3.2 0.00 0.00 0.00 45 1021.5
20260503180559 18 256 0.0 1.6 0.00 0.00 0.00 44 1021.8
20260503180057 18 256 0.0 0.0 0.00 0.00 0.00 50 1021.6
20260503175554 18 256 0.0 0.0 0.00 0.00 0.00 46 1021.8
20260503175051 18 269 0.0 0.0 0.00 0.00 0.00 49 1021.7
20260503174548 18 273 1.6 1.6 0.00 0.00 0.00 45 1022.1
20260503174044 18 266 0.0 0.0 0.00 0.00 0.00 49 1021.9
20260503173539 17 241 0.0 0.0 0.00 0.00 0.00 43 1021.7
20260503173036 18 327 4.8 6.4 0.00 0.00 0.00 44 1021.9
20260503172534 18 79 0.0 0.0 0.00 0.00 0.00 47 1021.9
20260503172030 18 269 3.2 4.8 0.00 0.00 0.00 44 1021.9
20260503171526 17 158 0.0 0.0 0.00 0.00 0.00 46 1022.2
20260503171024 17 223 0.0 1.6 0.00 0.00 0.00 47 1022.3
20260503170514 17 225 0.0 0.0 0.00 0.00 0.00 53 1022.2
20260503160205 16 105 6.4 6.4 0.00 0.00 0.00 53 1023.0
20260503150635 13 254 0.0 0.0 0.00 0.00 0.00 60 1023.4
20260503150131 13 226 1.6 3.2 0.00 0.00 0.00 59 1023.5
20260503131025 10 193 0.0 0.0 0.00 0.00 0.00 77 1022.5
20260503130522 10 189 0.0 0.0 0.00 0.00 0.00 77 1022.4
20260503110413 7 257 0.0 0.0 0.00 0.00 0.00 89 1021.7